TimeEST,TemperatureF,Dew PointF,Humidity,Sea Level PressureIn,VisibilityMPH,Wind Direction,Wind SpeedMPH,Gust SpeedMPH,PrecipitationIn,Events,Conditions,WindDirDegrees,DateUTC
12:53 AM,32.0,26.1,79,30.05,10.0,WNW,12.7,20.7,N/A,,Partly Cloudy,290,2013-01-07 05:53:00
1:53 AM,32.0,26.1,79,30.07,10.0,WNW,12.7,18.4,N/A,,Overcast,300,2013-01-07 06:53:00
2:53 AM,33.1,26.1,75,30.09,10.0,WNW,15.0,18.4,N/A,,Overcast,300,2013-01-07 07:53:00
3:53 AM,32.0,26.1,79,30.11,10.0,NW,10.4,-,N/A,,Overcast,310,2013-01-07 08:53:00
4:34 AM,32.0,26.6,80,30.07,10.0,WNW,12.7,-,N/A,,Overcast,300,2013-01-07 09:34:00
4:53 AM,32.0,26.1,79,30.14,10.0,NW,10.4,-,N/A,,Overcast,310,2013-01-07 09:53:00
5:53 AM,32.0,26.1,79,30.17,10.0,NW,10.4,-,N/A,,Overcast,310,2013-01-07 10:53:00
6:53 AM,32.0,27.0,82,30.20,10.0,WNW,8.1,-,N/A,,Overcast,300,2013-01-07 11:53:00
7:53 AM,33.1,26.1,75,30.24,10.0,NNW,13.8,23.0,0.00,,Overcast,330,2013-01-07 12:53:00
8:53 AM,30.9,23.0,72,30.29,10.0,NW,11.5,26.5,0.00,,Mostly Cloudy,310,2013-01-07 13:53:00
9:53 AM,32.0,23.0,69,30.32,10.0,NNW,11.5,19.6,N/A,,Overcast,330,2013-01-07 14:53:00
10:53 AM,32.0,21.9,66,30.33,10.0,NW,12.7,23.0,N/A,,Mostly Cloudy,320,2013-01-07 15:53:00
11:53 AM,32.0,21.9,66,30.32,10.0,NW,15.0,28.8,N/A,,Scattered Clouds,310,2013-01-07 16:53:00
12:53 PM,34.0,21.9,61,30.33,10.0,NNW,10.4,16.1,N/A,,Partly Cloudy,330,2013-01-07 17:53:00
1:53 PM,34.0,21.9,61,30.34,10.0,WNW,8.1,-,N/A,,Partly Cloudy,300,2013-01-07 18:53:00
2:53 PM,34.0,21.0,59,30.35,10.0,West,6.9,-,N/A,,Clear,260,2013-01-07 19:53:00
3:53 PM,34.0,21.9,61,30.36,10.0,WNW,5.8,-,N/A,,Clear,300,2013-01-07 20:53:00
4:53 PM,32.0,21.0,64,30.36,10.0,Calm,Calm,-,N/A,,Clear,0,2013-01-07 21:53:00
6:53 PM,27.0,19.9,75,30.37,10.0,Calm,Calm,-,N/A,,Clear,0,2013-01-07 23:53:00
7:53 PM,27.0,21.0,78,30.37,10.0,West,3.5,-,N/A,,Clear,260,2013-01-08 00:53:00
8:53 PM,28.0,21.0,75,30.37,10.0,West,5.8,-,N/A,,Clear,260,2013-01-08 01:53:00
9:53 PM,26.1,21.0,81,30.35,10.0,West,5.8,-,N/A,,Clear,260,2013-01-08 02:53:00
10:53 PM,26.1,21.0,81,30.35,9.0,WSW,8.1,-,N/A,,Clear,250,2013-01-08 03:53:00
11:53 PM,26.1,21.0,81,30.35,8.0,West,8.1,-,N/A,,Clear,260,2013-01-08 04:53:00